weather.gov     
National Weather Service

Regional Weather Roundup
NWS Homepage
This page is being discontinued on March 12, 2014.
The same data is available at this site. Please update your bookmarks.
Thank you, and we apologize for the inconvenience.
Please send an email to SR-SRH.Webmaster@noaa.gov with any concerns.


Current Version
Previous Version:    01  02  03  04  05  06  07  08  09  10  11  12  13  14  15  16  17  18  19  20  21  22  23  24  25  26  27  28  29  30  
   31  32  33  34  35  36  37  38  39  40  41  42  43  44  45  46  47  48  49  50  51  52  53  54  55  56  57  58  59  60  
[Printable]
219
ASUS43 KMKX 300621
RWRWI

WISCONSIN REGIONAL WEATHER ROUNDUP
NATIONAL WEATHER SERVICE MILWAUKEE/SULLIVAN WI
100 AM CDT SAT AUG 30 2014

NOTE: "FAIR" INDICATES FEW OR NO CLOUDS BELOW 12,000 FEET WITH NO
SIGNIFICANT WEATHER AND/OR OBSTRUCTIONS TO VISIBILITY.

WIZ001-002-006>008-014>016-023>028-300700-
NORTHWEST WISCONSIN

CITY           SKY/WX    TMP DP  RH WIND       PRES   REMARKS
SUPERIOR ARPT  CLOUDY    62  61  99 CALM      29.79R
6HR MIN TEMP:  61; 6HR MAX TEMP:  62;

ASHLAND        CLOUDY    63  62  97 N7        29.80R FOG
6HR MIN TEMP:  63; 6HR MAX TEMP:  67; 6HR PCP:  0.07;

HAYWARD        LGT RAIN  64  64 100 CALM      29.79S
6HR MIN TEMP:  64; 6HR MAX TEMP:  68; 6HR PCP:  0.24;

SIREN          LGT RAIN  65  64  96 N3        29.79R
6HR MIN TEMP:  65; 6HR MAX TEMP:  68; 6HR PCP:  0.08;

RICE LAKE      RAIN      65  63  95 CALM      29.79S
6HR MIN TEMP:  64; 6HR MAX TEMP:  68;

LADYSMITH      LGT RAIN  65  64  96 CALM      29.80F
6HR MIN TEMP:  65; 6HR MAX TEMP:  66; 6HR PCP:  0.17;

EAU CLAIRE     CLOUDY    67  66  97 W3        29.74F
6HR MIN TEMP:  67; 6HR MAX TEMP:  71; 6HR PCP:  0.55;

MENOMONIE      LGT RAIN  66  66  99 CALM      29.76F
6HR MIN TEMP:  66; 6HR MAX TEMP:  69; 6HR PCP:  0.93;

NEW RICHMOND   RAIN      65  65  99 CALM      29.78S
6HR MIN TEMP:  65; 6HR MAX TEMP:  69; 6HR PCP:  0.27;

OSCEOLA        RAIN      67  67 100 CALM      29.80S
6HR MIN TEMP:  67; 6HR MAX TEMP:  69; 6HR PCP:  0.13;

$$

WIZ003>005-009-010-017-018-300700-
NORTH CENTRAL WISCONSIN

CITY           SKY/WX    TMP DP  RH WIND       PRES   REMARKS
WOODRUFF       DRIZZLE   64  63  95 CALM      29.82R
6HR MIN TEMP:  63; 6HR MAX TEMP:  68; 6HR PCP:  0.24;

RHINELANDER    LGT RAIN  63  62  97 SE5       29.84R
6HR MIN TEMP:  63; 6HR MAX TEMP:  68; 6HR PCP:  0.25;

EAGLE RIVER    LGT RAIN  64  64 100 S3        29.83R
LAND O LAKES   LGT RAIN  64  64  99 S5        29.83R
6HR MIN TEMP:  64; 6HR MAX TEMP:  68; 6HR PCP:  0.23;

PHILLIPS       RAIN      63  63  99 CALM      29.80R
6HR MIN TEMP:  63; 6HR MAX TEMP:  65; 6HR PCP:  0.25;

TOMAHAWK       LGT RAIN  63  62  97 SE5       29.82S
6HR MIN TEMP:  63; 6HR MAX TEMP:  69; 6HR PCP:  1.44;

MEDFORD        RAIN      63  63  99 SE6       29.81R
6HR MIN TEMP:  63; 6HR MAX TEMP:  66; 6HR PCP:  0.20;

MERRILL        RAIN      65  65 100 SE5       29.83R
6HR MIN TEMP:  64; 6HR MAX TEMP:  72; 6HR PCP:  0.17;

$$

WIZ029-030-035-036-043>047-300700-
CENTRAL WISCONSIN

CITY           SKY/WX    TMP DP  RH WIND       PRES   REMARKS
WAUSAU         RAIN      66  65  96 SE6       29.82R FOG
6HR MIN TEMP:  65; 6HR MAX TEMP:  75; 6HR PCP:  0.72;

MOSINEE        HVY RAIN  64  64 100 SE5       29.84F
MARSHFIELD     HVY RAIN  67  66  97 SE7       29.81R FOG
6HR MIN TEMP:  66; 6HR MAX TEMP:  75; 6HR PCP:  0.49;

STEVENS POINT  CLOUDY    64  64  98 CALM      29.83F
WAUPACA        HVY RAIN  71  68  90 NW7       29.81S
6HR MIN TEMP:  71; 6HR MAX TEMP:  82; 6HR PCP:  0.18;

WAUTOMA        CLOUDY    68  66  94 CALM      29.80S FOG
6HR MIN TEMP:  69; 6HR MAX TEMP:  81; 6HR PCP: TRACE;

WISC RAPIDS    LGT RAIN  67  66  97 E6        29.81F
6HR MIN TEMP:  67; 6HR MAX TEMP:  80; 6HR PCP:  0.95;

CAMP DOUGLAS   FAIR      68  68 100 NE1       29.77F
6HR MIN TEMP:  67; 6HR MAX TEMP:  80; 6HR PCP:  0.61;

$$

WIZ011>013-019>022-031-037>040-048>050-300700-
NORTHEAST WISCONSIN

CITY           SKY/WX    TMP DP  RH WIND       PRES   REMARKS
ANTIGO         RAIN      64  64 100 SE7       29.85F
6HR MIN TEMP:  63; 6HR MAX TEMP:  67; 6HR PCP:  0.84;

STURGEON BAY   FAIR      70  66  88 S10       29.81F
6HR MIN TEMP:  70; 6HR MAX TEMP:  72;

GREEN BAY      FAIR      72  70  93 S5        29.80F FOG
6HR MIN TEMP:  72; 6HR MAX TEMP:  78;

MANITOWOC      FAIR      72  70  93 S12       29.82S
6HR MIN TEMP:  70; 6HR MAX TEMP:  73; 6HR PCP: TRACE;

APPLETON       MOCLDY    73  68  83 S6        29.80F
CLINTONVILLE   HVY RAIN  68  64  88 N7        29.81F
OSHKOSH        MOCLDY    72  69  90 S6        29.78F
6HR MIN TEMP:  73; 6HR MAX TEMP:  79; 6HR PCP:  0.03;

$$

WIZ032>034-041-042-053>061-300700-
SOUTHWEST WISCONSIN

CITY           SKY/WX    TMP DP  RH WIND       PRES   REMARKS
LA CROSSE      RAIN      69  67  93 NE3       29.75S FOG
6HR MIN TEMP:  69; 6HR MAX TEMP:  76; 6HR PCP:  0.39;

SPARTA         HVY RAIN  67  66  96 CALM      29.78S
6HR MIN TEMP:  67; 6HR MAX TEMP:  81; 6HR PCP:  0.94;

VIROQUA        CLOUDY    67  67 100 CALM      29.78F
6HR MIN TEMP:  67; 6HR MAX TEMP:  79; 6HR PCP:  0.53;

BOSCOBEL       LGT RAIN  71  68  90 S5        29.77F
6HR MIN TEMP:  71; 6HR MAX TEMP:  82;

PRAIRIE DU CHI CLOUDY    69  66  91 CALM      29.78S
6HR MIN TEMP:  69; 6HR MAX TEMP:  82; 6HR PCP:  0.17;

PLATTEVILLE    CLOUDY    72  69  92 S14       29.81S
6HR MIN TEMP:  69; 6HR MAX TEMP:  80; 6HR PCP:  0.53;

$$

WIZ056-057-062-063-064-067-068-300700-
SOUTH CENTRAL WISCONSIN

CITY           SKY/WX    TMP DP  RH WIND       PRES   REMARKS
BARABOO/DELLS  RAIN      70  68  92 CALM      29.78F
6HR MIN TEMP:  70; 6HR MAX TEMP:  80; 6HR PCP:  0.01;

LONE ROCK      RAIN      75  70  84 SW6       29.77F
6HR MIN TEMP:  73; 6HR MAX TEMP:  85; 6HR PCP:  0.98;

WATERTOWN      FAIR      72  69  92 S8        29.81F
6HR MIN TEMP:  71; 6HR MAX TEMP:  79;

MADISON        RAIN      73  68  84 S10G23    29.81S
6HR MIN TEMP:  73; 6HR MAX TEMP:  82; 6HR PCP:  0.01;

MIDDLETON      CLOUDY    73  70  90 S12G21    29.81S
6HR MIN TEMP:  73; 6HR MAX TEMP:  82; 6HR PCP:  0.05;

MONROE         CLOUDY    70  68  94 S12       29.81F
JANESVILLE     MOCLDY    73  64  73 S13       29.81F
$$

WIZ051-052-058>065-066-070>072-300700-
SOUTHEAST WISCONSIN

CITY           SKY/WX    TMP DP  RH WIND       PRES   REMARKS
MILWAUKEE      CLOUDY    73  69  87 S10       29.84F
6HR MIN TEMP:  73; 6HR MAX TEMP:  77; 6HR PCP:  0.07;

WAUKESHA       FAIR      70  68  94 S8        29.84S
MILWAUKEE/TIMM FAIR      72  68  88 S7        29.84S
RACINE         FAIR      73  69  87 S15       29.86F
6HR MIN TEMP:  73; 6HR MAX TEMP:  76;

BURLINGTON     FAIR      71  68  92 S6        29.83F
6HR MIN TEMP:  68; 6HR MAX TEMP:  76;

KENOSHA        FAIR      74  70  87 S10       29.85F
6HR MIN TEMP:  73; 6HR MAX TEMP:  78;

FOND DU LAC    FAIR      72  68  87 S7        29.80F
6HR MIN TEMP:  73; 6HR MAX TEMP:  80; 6HR PCP:  0.01;

SHEBOYGAN      MOCLDY    72  70  93 S9        29.82F FOG
6HR MIN TEMP:  72; 6HR MAX TEMP:  74; 6HR PCP:  0.04;

WEST BEND      FAIR      70  66  88 S3        29.83S
JUNEAU         FAIR      72  67  84 SE13      29.82F
6HR MIN TEMP:  71; 6HR MAX TEMP:  79;

$$

LSZ147-162-300700-
LAKE SUPERIOR

STATION/POSITION TIME  TEMP    WIND        PRES    WAVE
                       AIR SEA DIR/SP/G            HT/PER
                 (UTC) (F)     (DEG/KT/KT) (MB)    (FT/S)
W MID LAKE BUOY  0550   58 58   20/  6/  8 1008.1F   0
DEVILS ISLAND    0600   60      40/  4/  5 1008.7S
PORT WING        0540   62      CALM  /  2 1009.1S
SAXON HARBOR     0500   65      40/  6/  7 1008.5F
$$

LMZ867-665-643>646-300700-
LAKE MICHIGAN

STATION/POSITION TIME  TEMP    WIND        PRES    WAVE
                       AIR SEA DIR/SP/G            HT/PER
                 (UTC) (F)     (DEG/KT/KT) (MB)    (FT/S)
N MID LAKE BUOY  0550   68 65  200/ 14/ 16 1009.7R   4/ 7
NORTHPORT PIER   0500   69     180/  8/ 19 1010.2S
SISTER BAY       0541   70     230/  5/  7   N/A
KEWAUNEE LAKESHO 0600   65     180/  7/ 10 1009.0F
SHEBOYGAN LAKESH 0600   69 63  180/ 19/ 20 1009.7F
ATWATER BUOY     0600   70     160/ 12/ 14 1011.3F
MILWAUKEE LAKESH 0600   69     160/  9/ 10   N/A
S MID LAKE BUOY  0550   72 69  160/ 17/ 21 1011.0F
KENOSHA   LAKESH 0600   70     180/ 11/ 16 1010.5F
$$

TC  - TEMPERATURE IN CELSIUS
VSB - VISIBILITY IN STATUTE MILES
WCI - WIND CHILL INDEX
HX  - HEAT INDEX





U.S. Dept. of Commerce
NOAA National Weather Service
1325 East West Highway
Silver Spring, MD 20910
E-mail: w-nws.webmaster@noaa.gov
Page last modified: May 16, 2007
NATIONAL WEATHER SERVICE: for Safety, for Work, for Fun - FOR LIFE